Temp_Advection
nan nan nan nan nan nan nan nan nan nan nan nan nan nan nan nan nan nan nan nan nan nan nan nan nan nan nan nan nan nan nan nan nan nan nan nan nan nan nan nan nan nan nan nan nan nan nan nan nan nan nan nan nan nan nan nan nan nan nan nan nan nan nan nan nan nan nan nan nan
nan 0 0 0 0 0 0 0 0 0 0 0 0 0 0 0 0 0 -0 -0 -0 -0 -0 -0 -0 -0 -0 -0 -0 0 0 0 0 0 0 0 0 0 0 0 0 0 1 1 1 1 1 1 1 0 -0 -0 -0 -0 -0 -0 0 0 0 1 1 1 1 1 1 1 1 1 nan
nan 0 0 0 0 0 0 0 0 0 0 0 0 0 0 0 0 0 -0 -0 0 0 -0 -0 -0 -0 0 0 -0 0 0 0 0 0 0 0 0 0 0 0 0 1 1 1 1 0 0 0 1 1 0 0 0 -0 -0 -0 0 0 0 0 1 1 1 1 1 1 1 1 nan
nan 0 0 0 0 -0 -0 -0 0 0 0 0 0 0 0 0 0 0 -0 -0 -0 -0 -0 -0 -0 -0 0 0 0 0 0 0 0 0 0 0 0 0 1 1 0 1 1 1 0 0 0 1 1 1 0 0 0 1 0 -0 -0 -0 0 0 1 1 1 1 1 1 1 1 nan
nan 0 0 0 0 -0 -0 0 0 0 0 0 0 0 0 0 0 0 0 -0 -0 -0 -0 -0 -0 -0 0 0 0 0 0 0 0 0 0 0 0 1 0 0 1 1 1 1 1 0 0 0 0 0 0 0 1 2 2 0 -0 -1 -1 -0 0 0 1 1 1 1 1 1 nan
nan 0 0 0 0 0 0 0 0 0 0 0 0 0 0 -0 0 0 0 -0 -0 -0 -0 -0 -0 -0 0 0 0 0 0 0 0 0 0 0 1 0 0 0 1 1 1 1 1 1 1 0 0 0 1 1 1 1 1 1 1 -0 -1 -1 -1 0 0 1 0 0 1 1 nan
nan 0 0 0 0 0 0 0 0 0 0 0 0 0 0 0 0 0 0 0 -0 -0 -0 -0 -0 -0 0 0 0 0 0 0 0 0 0 0 0 0 0 0 0 1 1 1 1 1 0 0 0 0 1 1 1 1 1 1 1 1 -0 -1 -1 -1 -0 0 0 0 0 1 nan
nan 0 0 0 0 0 0 0 0 0 0 0 0 0 0 0 0 -0 -0 -0 -0 -0 -0 -0 0 0 0 0 0 0 0 0 0 0 0 0 0 0 0 0 1 1 2 1 1 0 0 0 0 0 1 1 1 1 1 1 1 1 0 -0 -1 -2 -1 -0 0 0 0 0 nan
nan 0 0 0 0 0 0 0 0 0 0 0 0 0 -0 -0 -0 -0 -0 -0 -0 0 0 0 0 0 0 0 0 0 0 0 0 0 -0 -0 -0 0 0 1 1 1 1 1 0 0 1 0 0 1 1 1 1 2 2 2 1 1 0 -0 -1 -2 -2 -1 0 0 0 0 nan
nan 0 0 0 0 0 0 0 0 -0 -0 0 0 -0 -0 -0 0 0 0 0 -0 -0 -0 -0 -0 0 0 0 0 0 0 0 0 0 -0 0 0 0 1 1 1 0 0 0 1 1 1 0 0 1 1 1 1 1 2 2 2 1 1 0 -1 -2 -2 -1 -0 0 0 0 nan
nan 0 0 0 0 0 0 0 0 -0 -0 -0 0 0 0 0 0 0 0 0 0 -0 -0 -0 -0 0 0 0 0 -0 0 0 0 0 0 0 1 0 0 -0 -0 0 0 0 0 1 1 1 1 0 0 0 0 1 1 1 2 2 1 1 0 -1 -2 -1 -1 -0 0 0 nan
nan 0 0 0 0 0 -0 -0 -0 -0 -0 -0 0 0 0 0 0 0 0 0 0 0 0 0 0 0 0 -0 -0 -0 0 0 0 0 0 0 0 0 0 -0 -0 -0 -0 0 0 0 1 0 0 0 0 0 0 0 0 0 1 1 1 1 0 -1 -2 -1 -1 -0 0 0 nan
nan 0 0 0 0 0 -0 -0 -0 -0 0 0 0 0 0 0 0 0 0 0 0 0 0 0 0 -0 -0 -0 -0 -0 0 0 0 0 -0 -0 -0 -0 -0 -0 -0 -0 0 0 0 0 0 0 -0 -0 -0 -0 -0 -0 -0 -0 0 0 1 0 -0 -1 -1 -1 -0 0 0 0 nan
nan 0 0 0 0 -0 -0 0 0 0 0 0 0 0 0 0 0 0 0 0 0 0 0 -0 -0 -0 -0 -0 0 0 0 0 0 -0 -0 -0 -0 -0 -0 0 0 0 0 0 0 0 0 0 -0 -0 -0 -0 -0 0 0 0 0 0 0 -0 -0 -1 -1 -0 -0 0 0 -0 nan
nan 0 0 0 0 0 0 0 0 0 0 0 0 0 0 0 0 0 0 0 0 0 -0 -0 -0 0 0 0 0 0 0 -0 -0 -0 -0 -0 -0 -0 -0 -0 0 0 0 0 0 0 0 -0 -0 -0 -0 -0 0 0 0 0 0 0 0 -0 -0 -0 -0 -0 -0 -0 -0 -0 nan
nan 0 0 0 0 0 0 0 0 0 0 0 0 0 0 0 0 0 0 0 0 -0 0 0 0 0 0 0 0 0 -0 -0 -0 -0 -0 -0 -0 -0 -0 -0 0 0 0 0 0 0 0 -0 -0 -0 -0 -0 0 0 0 0 0 0 0 0 0 -0 -0 -0 -0 0 0 0 nan
nan 0 0 0 0 0 0 0 0 0 0 0 0 0 0 0 0 0 0 0 0 0 0 0 0 0 0 0 0 -0 0 0 0 0 -0 -0 -0 -0 -0 0 0 0 0 0 0 0 0 -0 -0 -0 -0 -0 0 0 0 0 0 0 0 0 0 -0 -0 -0 -0 0 0 0 nan
nan 0 0 0 0 0 0 0 0 0 0 0 0 0 0 0 0 0 0 0 0 0 0 0 0 0 0 0 0 0 0 0 0 0 0 -0 -0 -0 -0 0 0 0 0 0 -0 -0 -0 -0 -0 -0 -0 -0 -0 0 0 0 0 0 0 0 0 0 -0 0 0 0 0 0 nan
nan 0 0 0 0 0 0 0 0 0 0 0 0 0 0 0 0 0 0 0 0 0 0 0 0 0 0 0 0 0 0 0 0 0 0 0 0 0 0 0 0 0 0 -0 -0 -0 -0 0 0 0 -0 0 0 0 0 0 0 0 0 0 0 0 0 0 0 0 0 0 nan
nan 0 0 0 0 0 0 0 0 0 0 0 0 0 0 0 0 0 0 0 0 0 0 0 0 0 0 0 0 0 0 0 0 0 0 0 0 0 0 0 0 0 -0 -0 -0 -0 0 0 0 0 -0 0 0 0 0 0 0 0 0 0 0 0 0 0 0 0 0 0 nan
nan 0 0 0 0 0 0 0 0 0 0 0 0 0 0 0 0 0 0 0 0 0 0 0 0 0 0 0 0 0 0 0 0 0 0 0 0 0 0 0 -0 -0 -0 0 0 0 0 0 0 0 0 0 0 0 0 0 0 0 0 0 0 0 0 0 0 0 0 0 nan
nan 0 0 0 0 0 0 0 0 0 0 0 1 1 0 0 0 0 0 0 0 0 0 0 0 0 0 0 0 0 0 0 0 0 0 0 0 0 -0 -0 -0 -0 0 0 0 0 0 0 0 0 0 0 0 0 0 0 0 0 0 0 0 0 0 0 0 0 0 0 nan
nan 0 0 0 0 0 0 0 0 0 1 1 1 1 0 0 0 0 0 0 0 0 0 0 0 0 0 0 0 0 0 0 0 0 0 0 -0 -0 -0 -0 -0 0 0 0 0 0 0 0 0 0 0 0 0 0 0 0 0 0 -0 -0 0 0 0 0 0 0 0 0 nan
nan 0 0 0 0 0 0 0 0 1 1 1 0 0 0 0 0 0 0 0 0 0 0 0 0 0 0 0 0 0 0 0 0 0 0 0 -0 -0 -0 0 0 0 0 0 0 0 0 0 0 0 0 0 0 0 0 0 0 0 -0 -0 -0 0 0 0 0 0 1 1 nan
nan 0 0 0 0 0 0 0 0 0 0 0 0 0 0 0 0 0 0 0 0 0 0 0 0 0 0 0 0 0 0 0 0 0 0 -0 -0 -0 0 0 0 0 0 0 0 0 0 0 0 0 0 0 0 0 0 0 0 0 0 -0 -0 -0 -0 0 0 1 1 1 nan
nan 0 0 0 0 0 0 0 0 0 0 0 0 0 0 0 0 0 0 0 0 0 0 0 0 0 0 0 0 0 0 0 0 -0 -0 0 0 0 0 0 0 0 0 -0 -0 -0 0 0 0 0 -0 0 0 0 0 0 0 0 0 0 -0 -0 -0 -0 0 1 1 1 nan
nan 0 0 0 0 0 0 0 0 0 0 0 0 0 0 0 0 0 0 0 0 0 0 0 0 0 0 0 0 0 0 0 0 -0 0 0 0 0 0 0 0 -0 -0 -0 -0 -0 0 0 0 0 -0 -0 -0 -0 -0 -0 0 0 0 0 0 -0 -0 -0 -0 0 1 1 nan
nan 0 0 0 0 0 0 0 0 0 0 0 0 0 0 0 0 0 0 0 0 0 0 0 0 0 0 0 0 0 0 0 0 0 0 0 0 0 0 -0 -0 -0 -0 -0 0 0 0 0 0 0 0 -0 -0 -0 -0 -0 -0 -0 0 0 0 0 0 0 -0 -0 0 0 nan
nan 0 0 0 0 0 0 0 0 0 0 0 0 0 0 0 0 0 0 0 0 0 0 0 0 0 0 0 0 0 0 0 -0 -0 -0 -0 -0 -0 -0 -0 -0 0 0 0 0 0 0 0 0 0 0 0 0 -0 -0 -0 -0 -0 0 0 0 0 0 0 0 0 0 -0 nan
nan 0 0 0 0 0 0 0 0 0 0 0 0 0 0 0 0 0 0 0 0 0 0 0 0 0 0 0 0 0 -0 -0 -0 -0 -0 -0 0 0 0 0 0 0 0 0 0 0 0 0 0 0 0 0 0 0 0 0 0 0 0 0 0 0 0 0 0 0 0 0 nan
nan 0 0 0 0 0 0 0 0 0 0 0 0 0 0 0 0 0 0 0 0 0 0 0 0 0 0 0 -0 -0 -0 -0 -0 -0 0 0 0 0 0 0 0 0 0 0 0 0 0 0 0 0 0 0 0 0 0 0 0 0 0 0 0 1 1 1 0 1 1 0 nan
nan 0 0 0 0 0 0 0 0 0 0 0 0 0 0 0 0 0 0 0 0 0 0 0 0 0 -0 -0 -0 -0 -0 0 0 0 0 0 0 0 0 0 0 0 0 0 0 0 0 0 0 0 0 0 0 0 0 0 1 1 1 1 1 1 1 1 1 1 1 1 nan
nan 0 0 0 0 0 0 0 0 0 0 0 0 0 0 0 0 0 0 0 0 0 0 -0 -0 -0 -0 0 0 0 0 0 0 0 0 0 0 0 -0 0 0 0 0 0 0 0 0 0 0 0 0 0 0 0 1 1 1 1 1 1 1 1 1 1 1 1 1 0 nan
nan -0 -0 -0 -0 -0 -0 -0 -0 -0 -0 0 0 0 0 0 0 0 0 -0 -0 -0 -0 -0 0 0 0 0 0 0 0 0 0 -0 -0 0 0 0 0 0 0 0 0 0 0 0 0 0 0 0 0 0 0 0 1 1 1 1 1 1 1 1 1 1 1 0 0 0 nan
nan -0 -0 -0 -0 -0 -0 -0 -0 -0 -0 -0 -0 -0 -0 -0 -0 -0 -0 -0 -0 0 0 0 0 0 0 0 0 0 0 0 0 0 0 -0 0 0 0 0 0 0 0 0 0 0 0 0 0 0 -0 -0 0 0 0 0 0 0 0 1 1 1 1 1 0 0 0 0 nan
nan -0 -0 -0 -0 -0 -0 -0 -0 -0 -0 -0 -0 -0 -0 -0 -0 -0 -0 -0 -0 0 0 0 0 0 0 0 0 0 0 0 0 0 0 -0 -0 -0 -0 -0 -0 -0 0 0 0 0 0 0 0 0 -0 -0 -0 0 0 0 0 0 0 0 0 0 0 0 0 0 0 0 nan
nan -0 -0 -0 -0 -0 -0 -0 -0 -0 -0 -0 -0 -0 -0 -0 -0 -0 -0 -0 -0 0 0 0 0 0 0 0 0 0 -0 -0 -0 -0 -0 -0 -0 -0 -0 -0 -0 -0 0 0 0 0 0 0 0 0 -0 -0 -0 -0 -0 -0 0 0 0 0 0 0 0 0 0 0 -0 -0 nan
nan -0 -0 -0 -0 -0 -0 -0 -0 -0 -0 -0 -0 -0 -0 -0 -0 -0 -0 0 0 0 0 0 0 0 0 -0 -0 -0 -0 -0 -0 -0 -0 -0 -0 -0 -0 -0 -0 -0 -0 0 0 0 0 0 0 0 -0 -0 -1 -1 -0 -0 -0 -0 -0 -0 -0 0 0 0 0 -0 -0 -0 nan
nan -0 -0 -0 -0 -0 -0 -0 -0 -0 -0 -0 -0 -0 -0 -0 -0 0 0 0 -0 -0 -0 -0 -0 -0 -0 -0 -0 -0 -0 -0 -0 -0 -0 -0 -0 -0 -0 -0 -0 -0 -0 0 0 0 0 0 0 0 -0 -0 -1 -1 -1 -1 -1 -1 -0 -1 -1 -0 -0 -0 -0 -0 -0 -0 nan
nan -0 -0 -0 -0 -0 -0 -0 -0 -0 -0 -0 -0 -0 -0 -0 -0 -0 -0 -0 -0 -0 -0 -0 -0 -0 -0 -0 -0 -0 -0 -0 -0 -0 -0 -0 -0 -0 -0 -0 -0 -0 -0 0 0 0 -0 -0 0 -0 -0 -0 -1 -1 -1 -1 -1 -1 -1 -1 -1 -1 -1 -1 -1 -0 -0 -0 nan
nan nan nan nan nan nan nan nan nan nan nan nan nan nan nan nan nan nan nan nan nan nan nan nan nan nan nan nan nan nan nan nan nan nan nan nan nan nan nan nan nan nan nan nan nan nan nan nan nan nan nan nan nan nan nan nan nan nan nan nan nan nan nan nan nan nan nan nan nan
Wind_Speed
35 35 36 36 37 37 37 37 36 36 36 36 36 36 36 35 35 35 34 33 33 32 31 30 29 28 27 27 27 27 26 26 27 27 28 28 29 29 29 29 30 30 31 32 32 33 33 33 32 33 33 33 33 33 33 33 32 31 30 29 28 27 26 26 25 25 25 25 25
33 34 34 35 35 35 36 36 36 36 36 35 35 35 35 35 35 34 34 33 32 32 31 30 29 29 28 28 27 27 26 26 26 27 27 28 28 28 29 30 30 31 32 32 33 34 34 34 33 33 33 33 33 34 34 34 33 33 32 31 30 28 27 27 26 26 25 25 25
32 32 33 33 34 34 35 35 35 35 35 34 34 34 34 34 34 34 33 33 32 32 31 31 30 29 29 28 28 27 27 27 26 27 27 28 28 28 29 30 31 32 32 33 34 34 34 35 35 35 34 34 34 34 34 34 34 33 33 32 31 29 29 28 27 26 26 26 26
31 31 32 32 33 33 33 33 33 33 33 33 33 33 33 33 33 33 32 32 32 32 31 31 30 30 29 29 28 28 27 27 27 27 27 27 27 28 30 31 33 34 35 35 35 35 35 36 36 36 35 35 35 35 35 34 34 34 33 32 31 30 30 29 28 27 27 27 27
29 30 30 31 31 32 32 31 31 31 31 32 32 32 32 32 32 32 32 32 32 31 31 31 30 30 30 29 28 28 27 27 27 27 27 27 27 29 30 31 33 35 36 36 36 37 37 36 37 37 37 37 36 36 35 34 34 34 33 33 32 31 30 29 28 28 27 27 27
28 28 29 29 29 30 30 30 30 30 30 30 31 32 32 31 31 31 31 31 31 31 30 30 30 30 29 29 28 27 27 27 28 28 28 27 28 29 30 31 32 34 35 36 37 37 37 37 37 37 37 37 37 37 36 35 35 34 33 33 32 31 30 29 29 28 28 28 28
25 26 27 27 28 28 29 29 29 29 29 29 30 30 30 30 30 30 30 30 30 30 30 30 29 29 28 27 27 27 27 27 28 28 28 28 28 29 30 31 32 34 35 36 36 36 36 36 37 37 37 38 38 38 37 37 36 34 34 33 33 32 31 30 29 29 29 28 28
23 24 25 25 26 27 27 27 28 28 28 29 29 29 29 29 29 30 30 30 30 29 29 28 27 27 26 26 26 26 26 26 27 27 27 27 28 28 30 32 33 34 34 34 34 34 34 35 35 36 36 37 38 39 38 38 37 35 34 33 32 32 31 30 30 29 29 29 28
21 22 23 23 24 25 26 26 26 27 27 28 28 28 28 28 29 29 28 28 27 27 26 26 26 26 26 26 26 26 26 25 25 25 25 26 27 29 31 32 33 33 32 32 31 32 33 33 33 33 34 35 37 38 38 38 37 36 35 33 32 31 31 30 30 29 29 29 29
18 20 21 22 23 24 24 25 25 26 26 27 27 27 27 27 27 26 26 26 26 26 25 25 25 25 25 25 25 25 25 25 25 25 26 27 28 29 30 30 29 28 28 28 28 29 30 30 31 31 32 33 34 35 36 36 36 35 34 33 32 31 31 30 30 29 29 29 28
16 18 19 21 21 22 23 24 24 25 25 26 25 25 25 25 25 25 25 25 25 25 25 25 24 24 24 24 24 24 24 25 26 26 27 27 27 25 24 24 24 24 25 26 27 28 28 29 29 29 29 30 30 31 31 31 31 31 31 31 31 30 30 30 29 29 28 28 28
14 16 18 19 20 21 22 23 23 24 24 24 24 24 24 24 24 24 24 24 24 24 24 24 24 23 23 23 23 23 24 25 26 25 24 22 21 20 19 20 21 22 23 25 26 27 27 26 26 25 25 25 25 25 25 25 26 27 28 29 29 29 29 29 28 27 27 27 27
13 15 16 18 19 20 21 22 22 23 23 23 24 24 23 23 23 23 23 24 24 23 23 23 23 22 22 22 23 24 25 24 22 20 18 17 17 18 19 20 21 23 24 24 25 25 24 23 22 21 20 20 20 21 21 22 23 25 26 28 28 28 27 27 26 26 26 26 27
12 14 15 16 17 19 19 20 21 21 22 22 22 23 22 22 22 22 23 23 23 22 22 22 22 22 22 22 23 22 21 18 17 16 16 17 18 19 20 21 22 23 23 24 24 23 22 21 20 19 19 19 19 19 20 21 22 23 24 25 25 25 25 24 24 24 25 25 26
12 13 14 15 16 17 18 19 19 20 21 21 21 21 21 21 21 22 22 22 22 21 21 21 21 21 21 21 20 18 17 16 16 16 17 17 18 19 20 20 21 22 22 22 22 21 20 20 19 19 18 18 18 18 18 19 19 20 20 21 21 22 22 22 22 23 24 25 25
12 13 14 15 15 16 17 17 18 19 19 19 20 20 20 20 20 21 21 20 20 20 20 19 19 19 18 17 17 16 16 16 16 16 17 17 17 18 19 19 20 20 21 20 20 19 18 18 18 18 17 17 16 16 16 16 16 16 17 17 18 19 20 21 22 22 23 24 25
12 13 14 14 15 15 15 16 16 17 17 18 18 19 19 19 19 19 19 19 18 18 18 17 17 16 16 15 15 15 16 16 16 16 16 16 16 16 17 18 18 19 18 18 18 17 17 17 16 16 16 15 14 14 14 14 14 14 15 16 17 18 19 20 21 22 22 23 24
12 13 13 14 14 14 14 15 15 16 16 17 18 18 18 18 18 18 17 17 16 16 15 15 15 15 15 15 15 15 15 15 15 15 15 14 14 15 15 16 16 16 16 16 16 16 16 15 15 14 14 13 13 13 13 13 13 14 15 16 17 18 19 20 20 21 22 23 24
12 12 12 13 13 13 14 14 14 15 15 16 17 17 17 17 17 16 16 15 15 14 14 14 14 14 14 14 14 14 14 14 14 13 13 13 13 13 14 14 15 15 14 15 15 15 14 14 13 13 12 12 12 12 12 13 13 14 15 16 17 18 19 20 20 21 22 23 24
11 12 12 12 13 13 13 14 14 14 15 16 16 16 16 16 16 15 14 14 14 13 13 13 13 13 13 13 13 13 13 13 12 11 11 11 12 12 13 13 13 13 13 13 13 13 12 12 11 11 11 11 11 12 12 13 14 15 16 17 18 19 19 20 21 22 23 24 25
11 11 12 12 13 13 13 14 14 14 15 15 15 15 15 15 14 14 13 13 13 12 12 12 12 12 12 12 12 11 11 10 10 9 10 10 11 11 12 12 12 12 12 12 11 11 10 10 10 11 11 11 12 12 13 14 14 16 17 18 19 19 20 21 22 24 25 26 27
10 11 12 12 13 13 13 13 14 14 14 14 14 14 14 13 13 12 12 12 12 11 11 11 11 11 11 10 10 9 9 8 8 8 9 9 10 10 10 11 11 10 10 10 9 9 9 10 10 11 11 11 12 13 14 15 16 17 18 19 20 21 22 23 24 25 27 28 29
10 11 11 12 12 12 13 13 13 13 13 13 13 13 12 12 11 11 11 11 10 10 10 10 10 9 9 9 8 7 7 6 6 7 8 8 9 9 9 9 9 9 9 8 9 9 9 10 10 11 12 12 13 14 15 16 17 18 19 21 22 23 24 25 27 28 29 30 31
9 10 11 11 11 11 11 12 12 12 12 11 11 11 10 10 10 10 10 9 9 9 9 9 8 8 7 7 6 6 5 5 5 6 7 7 8 8 8 8 8 8 8 8 9 9 10 11 11 12 13 14 15 15 17 18 19 20 21 23 24 26 27 28 29 30 31 32 33
8 9 9 10 10 10 10 10 10 10 10 10 10 9 9 9 9 9 8 8 8 8 8 7 7 6 6 5 5 5 5 5 5 6 6 7 7 7 7 7 7 8 8 9 10 10 11 12 13 14 14 15 16 17 18 19 21 22 24 25 27 28 29 31 32 32 33 33 34
7 7 8 8 8 8 9 9 9 9 9 9 9 9 8 8 8 8 8 8 8 7 7 6 6 5 5 4 4 4 5 5 6 6 6 6 6 7 7 7 8 8 9 10 11 11 12 13 14 15 16 17 18 19 21 22 23 24 26 28 29 30 32 33 34 34 35 35 35
5 6 6 7 7 7 7 8 8 8 8 8 8 8 8 8 8 8 8 7 7 7 6 6 5 5 5 5 5 5 5 6 6 6 6 7 7 7 7 8 9 10 10 11 12 13 14 14 15 16 18 19 21 22 23 25 26 27 28 30 31 32 33 34 35 36 37 37 36
4 5 5 6 6 6 7 7 7 7 7 8 8 8 8 8 7 7 7 7 7 6 6 6 6 6 5 5 5 5 6 6 6 6 7 7 8 8 9 9 10 11 12 12 13 14 15 16 17 18 20 21 23 24 26 27 28 29 30 32 33 33 34 35 36 37 37 38 38
3 4 4 5 5 5 6 6 6 6 7 7 7 7 7 7 7 7 7 7 6 6 6 6 6 6 6 6 6 6 6 6 7 7 8 8 9 9 10 11 11 12 12 13 14 15 16 18 19 20 22 23 25 26 27 29 30 31 32 32 33 34 35 35 36 36 37 37 37
3 3 4 4 4 5 5 5 5 6 6 6 6 6 6 6 6 6 6 6 6 6 6 6 6 6 6 6 6 6 7 7 8 8 8 9 9 10 10 11 12 13 13 15 16 17 19 20 21 23 24 25 26 28 29 30 31 32 32 33 33 34 34 35 35 35 35 36 36
2 3 3 3 4 4 4 4 4 4 5 5 5 5 5 6 6 6 6 6 6 6 6 6 6 6 6 6 6 7 7 7 8 8 8 8 9 10 11 12 13 14 15 17 18 19 21 22 23 25 26 27 28 29 30 31 31 32 33 33 33 34 34 34 34 34 34 34 34
1 2 2 2 2 3 3 3 3 3 3 3 4 4 5 5 5 6 6 6 6 6 5 5 5 5 6 6 6 6 7 7 7 7 8 8 9 11 12 13 15 16 17 19 20 22 23 24 25 26 27 28 29 30 31 31 32 32 33 33 33 33 33 34 34 34 34 34 33
0 0 0 1 1 1 1 1 1 1 2 2 3 4 4 4 5 5 5 5 5 5 5 5 5 5 5 5 5 5 5 6 7 8 9 10 11 13 14 16 17 18 20 21 22 23 25 26 27 28 29 30 31 31 32 32 33 33 33 33 33 34 34 33 33 34 33 33 33
2 2 2 2 2 2 2 2 2 2 3 3 3 4 4 4 5 5 5 5 4 4 4 3 3 3 3 4 4 5 6 7 9 10 11 12 14 15 17 18 20 21 22 23 24 25 26 27 28 29 30 31 32 33 33 33 34 34 34 34 34 34 34 33 33 33 33 32 32
4 5 5 5 5 5 5 5 5 5 5 5 5 5 5 5 5 5 5 4 4 3 2 2 2 2 4 5 6 7 8 10 11 12 14 15 16 18 19 21 22 23 24 25 26 27 28 29 29 30 31 32 33 34 34 34 34 34 34 34 34 34 33 33 32 32 31 31 30
7 7 7 7 7 7 8 7 7 7 7 7 7 7 7 6 5 5 4 3 2 1 0 2 3 4 6 7 8 10 11 12 14 15 16 18 19 20 21 23 24 25 26 27 27 28 29 30 30 31 32 33 34 34 34 34 34 34 34 34 33 33 32 31 31 30 30 29 28
9 9 9 9 9 9 9 9 9 9 9 8 8 7 6 5 4 4 2 1 1 1 3 4 5 7 8 10 11 12 14 15 16 18 19 20 21 22 23 25 26 27 27 28 29 29 30 31 31 32 32 33 33 34 34 34 34 33 33 32 32 31 30 29 28 28 27 27 26
10 10 10 10 10 10 10 10 9 9 8 7 7 6 5 4 3 2 1 2 3 4 5 7 8 9 11 12 14 15 16 17 19 20 21 22 23 24 25 26 27 28 29 29 30 30 30 31 31 31 32 32 32 33 33 33 32 32 31 30 29 28 27 26 25 25 25 25 25
11 11 10 10 10 10 9 9 8 7 6 5 5 4 3 2 2 2 3 4 5 7 8 9 11 12 13 15 16 17 19 20 21 22 23 24 25 26 26 27 28 29 29 30 30 30 30 30 30 30 30 30 31 31 31 31 30 30 29 28 27 25 24 23 22 22 22 23 23
11 10 10 9 9 8 8 7 6 5 4 3 3 2 2 3 3 5 6 7 8 9 11 12 13 14 15 17 18 19 20 21 22 23 24 25 26 26 27 28 28 29 29 30 29 29 29 29 29 29 29 29 29 29 29 28 28 27 26 25 24 23 22 20 20 20 21 22 22
10 9 9 8 7 6 6 5 4 3 3 2 3 3 4 5 6 7 8 9 11 12 13 14 15 16 17 18 19 20 21 22 23 24 24 25 26 27 27 28 28 29 29 29 29 28 28 28 27 27 27 26 26 26 26 26 25 25 24 23 23 22 21 19 19 19 20 21 22
Wind_Direction
244 245 246 247 249 250 252 253 255 257 258 260 261 263 264 265 267 269 270 272 273 275 276 278 279 281 282 283 283 284 284 283 281 279 278 277 276 276 276 275 274 272 271 269 268 267 266 266 265 264 264 264 264 263 263 262 262 261 261 260 259 259 259 259 259 261 262 264 267
245 246 247 248 250 251 253 254 255 257 259 261 263 264 266 267 268 270 271 273 275 277 278 279 280 281 282 283 284 285 285 283 282 280 278 278 278 278 278 277 276 275 273 272 270 269 268 267 266 265 265 265 265 264 264 263 263 262 261 261 260 260 259 259 260 261 262 264 265
247 247 247 248 250 251 252 254 256 258 260 262 264 265 267 268 269 271 273 274 276 277 278 279 280 281 282 284 285 285 285 284 283 281 279 279 279 279 279 278 277 275 274 272 271 270 270 269 267 266 265 265 265 264 264 264 263 262 262 262 262 261 261 260 261 261 262 263 264
247 247 247 248 250 252 254 256 258 260 262 264 265 267 268 269 271 272 274 276 277 277 279 280 281 282 283 284 285 285 286 285 284 282 281 280 280 279 278 276 275 274 272 271 270 270 269 269 268 267 266 265 265 264 263 263 263 263 263 263 263 262 262 262 262 262 262 263 264
247 248 248 249 251 254 256 258 260 262 264 265 266 267 269 270 272 273 275 276 277 279 281 282 283 283 284 284 285 286 286 286 285 284 282 282 280 277 276 276 275 274 272 271 270 268 268 268 268 268 267 267 266 265 264 264 263 264 264 264 263 263 263 263 263 263 263 264 265
248 248 249 251 253 255 257 260 261 263 264 266 267 268 269 271 272 274 275 277 279 281 282 282 283 283 284 285 286 288 288 288 287 286 285 283 280 278 276 275 275 274 273 272 270 269 269 268 268 267 267 268 267 267 266 265 265 264 264 265 265 265 264 264 264 264 264 265 266
249 249 250 252 253 256 258 260 261 263 264 266 267 268 270 271 273 274 276 277 279 280 281 281 283 284 286 288 289 290 291 291 290 289 288 286 284 282 279 277 275 274 273 272 272 271 271 270 269 268 267 267 267 267 267 266 265 264 264 264 265 266 267 266 266 266 266 266 267
249 250 251 252 254 256 258 260 261 263 265 266 267 269 270 272 273 275 276 277 278 280 282 284 286 288 290 291 292 292 293 293 293 292 291 288 286 284 281 278 276 274 274 274 274 274 274 274 273 271 270 268 268 267 267 267 267 266 265 265 266 267 268 268 268 268 268 268 269
248 249 251 252 254 256 258 260 262 264 266 267 269 270 272 274 275 276 278 279 282 284 286 288 290 291 291 292 292 293 294 294 293 291 289 286 283 281 278 277 277 277 277 278 278 278 277 277 275 274 273 271 270 269 268 268 267 267 266 266 267 268 269 269 270 270 270 271 272
248 250 251 252 254 256 258 260 262 264 266 268 269 271 273 275 277 279 281 284 286 287 288 289 290 290 291 292 293 294 294 293 291 288 285 282 279 278 279 280 282 284 286 286 286 284 282 279 278 277 276 276 275 274 273 271 270 269 269 268 268 269 269 270 271 272 273 273 274
250 251 252 253 255 256 258 259 261 264 266 268 270 272 274 276 279 281 283 284 284 285 286 288 289 290 291 292 293 293 291 289 286 283 281 281 282 284 287 290 293 294 294 293 292 290 287 284 282 281 280 281 281 280 279 277 276 275 274 273 271 270 270 271 272 274 275 276 277
252 253 254 254 256 257 259 260 262 265 267 270 272 275 277 278 280 282 283 283 283 285 287 288 288 289 291 292 291 289 286 283 282 283 285 289 292 296 297 297 295 294 292 291 290 290 290 289 288 288 287 287 287 286 285 284 283 282 280 277 274 272 271 272 274 276 277 278 278
253 254 255 256 257 258 260 262 264 267 269 272 274 277 279 280 282 282 283 283 284 286 287 287 288 289 289 288 286 283 281 281 285 291 296 299 300 298 295 292 290 289 288 288 289 291 294 296 297 297 296 294 292 290 289 289 287 284 281 278 276 273 273 274 276 277 278 278 277
253 255 255 257 258 260 262 264 266 268 271 273 276 278 280 281 282 282 283 283 284 285 286 286 286 286 284 282 280 279 282 288 295 299 299 298 295 292 290 289 289 290 291 291 293 295 298 301 303 303 301 298 296 295 294 291 288 284 281 278 276 274 274 275 276 277 277 277 277
250 253 255 256 258 260 262 265 267 269 272 275 277 279 280 281 281 282 282 282 283 284 284 284 282 281 279 279 280 284 290 295 296 295 293 292 291 290 291 292 293 293 294 294 296 298 301 304 304 303 301 299 298 296 294 290 286 282 279 277 275 275 275 275 275 275 276 276 277
248 251 254 256 258 261 263 266 269 271 273 276 277 278 279 279 280 280 280 280 280 281 281 280 279 278 279 281 286 290 292 292 291 290 290 290 291 291 293 294 295 295 296 297 299 301 302 303 302 300 298 295 293 291 288 285 282 280 277 276 275 275 274 274 275 275 276 276 277
249 252 255 257 260 263 266 268 271 273 274 276 276 276 276 277 277 277 277 277 278 277 277 277 278 279 282 284 286 288 288 288 288 288 289 290 291 292 292 293 294 295 297 299 300 300 300 298 297 294 292 288 286 284 282 280 279 277 276 275 275 274 275 275 275 276 277 278 279
250 253 257 260 262 265 267 268 270 271 272 273 273 273 273 274 274 275 275 275 275 275 276 277 278 280 282 283 283 284 284 285 286 287 287 288 288 289 289 289 291 293 296 297 296 295 294 292 290 288 285 283 280 279 278 278 278 277 276 276 275 276 276 276 277 278 279 280 281
250 254 256 259 261 262 263 264 265 266 267 268 269 270 271 272 273 274 274 274 274 275 275 276 277 278 279 279 280 281 282 282 283 283 284 285 285 284 284 285 287 289 291 291 290 289 287 285 284 282 280 278 278 277 278 278 278 278 278 277 277 277 277 278 278 279 280 281 282
248 251 254 255 256 257 258 258 259 260 262 263 265 267 269 271 272 273 275 275 275 275 275 275 275 276 277 277 277 278 279 278 278 279 280 280 280 281 281 283 284 285 286 285 285 284 282 281 279 278 277 277 278 278 279 279 279 279 279 278 278 278 278 278 278 279 280 280 282
247 250 252 253 254 255 256 256 256 257 258 260 262 265 267 269 271 273 274 274 274 274 274 274 274 274 274 274 274 274 274 274 274 274 274 275 276 278 280 281 282 282 282 281 281 280 279 277 277 277 277 277 278 278 279 279 279 278 278 277 277 277 277 278 278 279 280 281 282
249 252 254 256 257 257 257 257 257 257 257 259 261 263 266 268 271 272 272 272 272 272 272 272 272 271 271 270 269 268 267 268 268 268 270 272 275 277 278 278 278 278 277 277 276 275 275 274 275 276 277 277 277 277 277 277 277 276 276 275 276 276 277 278 279 280 282 283 284
252 254 256 258 258 259 259 258 258 257 258 258 260 263 265 267 269 269 270 270 270 270 269 268 267 266 265 263 262 261 262 263 264 266 268 271 274 275 275 274 274 273 272 272 272 272 272 273 274 274 275 275 275 275 275 275 275 275 275 276 276 277 279 280 281 283 284 285 285
252 254 256 257 259 259 259 259 258 258 257 258 259 261 263 264 266 266 266 266 266 265 263 262 260 258 256 254 253 254 258 261 265 266 268 270 270 270 270 269 268 268 268 268 268 269 270 270 271 271 272 273 273 273 274 274 275 276 278 279 280 281 282 283 284 285 286 286 287
250 253 255 256 258 258 258 257 257 256 255 255 256 257 259 260 261 262 262 261 260 258 256 253 250 247 244 242 245 248 253 258 261 263 264 264 263 263 263 263 263 264 265 265 266 267 268 269 270 271 271 272 273 274 275 277 279 280 282 283 285 285 286 287 287 287 287 287 287
246 249 251 252 254 254 254 254 253 252 252 252 253 253 255 256 257 258 257 255 253 250 245 240 235 231 230 232 237 243 248 251 253 254 254 255 254 254 255 257 259 260 261 263 264 266 268 270 272 274 275 276 278 279 281 282 284 285 286 287 288 288 289 289 289 288 288 287 287
241 243 245 247 248 250 250 251 250 250 251 251 252 252 254 255 255 254 251 247 244 239 232 225 220 220 222 225 231 236 240 244 246 246 247 246 246 247 250 252 255 257 259 262 264 267 270 273 276 279 281 283 285 286 287 288 288 289 289 290 290 290 290 290 290 289 289 288 288
242 243 244 245 247 249 249 249 250 250 251 252 252 253 254 254 252 249 244 239 233 226 219 215 216 218 222 224 228 232 235 238 239 241 241 241 242 244 247 251 254 258 261 265 269 273 276 279 282 284 286 287 289 289 290 290 290 291 291 291 291 290 290 290 290 290 290 290 290
254 253 252 253 253 253 252 252 253 252 253 253 253 253 253 251 247 242 235 229 222 216 211 211 215 219 220 222 226 230 233 234 236 237 238 240 243 247 251 256 261 265 270 274 277 280 283 285 286 287 288 289 290 290 290 291 291 291 291 291 291 291 291 291 291 291 291 291 291
270 266 263 261 261 259 257 255 254 253 252 252 251 249 247 243 238 231 225 219 214 211 210 212 214 216 219 221 224 227 230 233 236 238 241 245 250 256 261 267 271 275 279 282 284 286 287 288 289 290 290 290 291 291 292 292 292 293 293 293 292 292 292 292 292 292 292 292 293
276 271 267 266 264 261 257 253 251 249 248 246 244 240 235 229 224 218 215 211 209 209 210 211 212 214 217 221 224 228 232 237 242 247 252 258 264 270 274 278 281 284 286 287 288 290 291 292 292 293 293 293 293 293 294 294 294 294 294 294 294 293 293 293 293 293 293 294 294
278 270 268 264 260 255 250 245 241 239 238 234 229 223 218 213 210 208 207 204 203 202 203 205 209 214 218 223 228 234 241 249 257 264 270 275 279 282 284 286 288 290 291 292 293 293 294 295 295 295 295 295 295 295 295 295 295 295 295 295 294 294 294 294 294 294 295 295 295
265 258 240 236 225 215 202 196 195 198 200 201 199 197 195 194 195 194 191 189 188 188 192 198 207 214 222 231 242 252 263 271 278 283 286 288 289 290 292 293 294 294 295 296 296 297 297 297 297 297 296 296 296 296 296 296 296 296 296 296 296 296 296 296 296 297 297 297 298
97 99 102 104 108 109 113 117 122 132 143 151 158 161 163 165 165 164 164 166 169 175 182 193 207 224 241 258 271 280 285 289 291 293 294 295 295 296 297 297 298 298 298 299 299 299 299 298 298 298 297 297 297 297 297 297 297 297 297 297 298 298 298 299 299 299 300 300 300
100 100 101 102 103 106 108 111 115 120 126 130 132 134 136 139 140 140 142 146 152 161 175 203 246 271 284 290 292 294 295 297 297 298 299 299 300 300 301 301 300 300 300 300 300 299 299 299 299 298 298 298 298 298 299 299 299 299 299 300 300 300 301 301 301 302 302 302 303
103 103 103 104 106 108 109 112 114 117 119 121 121 123 123 125 125 125 126 127 129 138 269 296 300 300 300 301 301 301 301 302 303 303 303 303 303 303 302 302 302 301 301 300 300 300 299 299 299 299 299 299 300 300 300 301 301 301 301 302 302 303 303 304 304 304 304 304 305
106 106 107 108 109 110 111 112 114 114 115 115 114 114 114 114 112 108 102 84 27 325 313 308 307 307 306 306 307 307 307 307 306 306 305 305 305 304 303 303 302 301 301 300 300 300 300 300 300 300 301 301 302 302 302 302 303 303 304 304 305 306 306 307 307 307 307 307 308
110 110 110 110 110 110 110 111 111 110 110 108 107 107 104 101 94 81 38 344 326 317 315 314 313 312 312 311 311 310 309 308 308 307 306 305 305 304 303 303 302 301 301 301 301 301 301 301 302 302 303 303 304 304 304 304 305 306 307 308 308 309 310 311 312 313 313 313 314
113 112 112 110 109 109 109 108 108 106 105 103 101 96 87 68 33 357 337 329 323 321 319 318 317 316 314 313 312 311 310 309 307 306 306 305 304 304 303 302 302 301 301 302 302 302 303 303 304 305 306 306 306 307 307 307 308 310 311 312 313 314 316 318 321 322 323 322 322
115 114 113 111 109 108 108 107 104 101 96 89 77 56 25 2 347 337 331 328 325 324 321 319 317 316 314 313 311 310 309 308 307 306 305 305 304 304 303 302 302 302 302 303 303 304 305 306 307 308 309 310 310 310 310 311 313 314 315 316 318 320 322 325 330 331 331 328 326
117 117 115 113 111 109 107 103 94 85 70 48 25 6 352 344 338 334 330 328 325 323 321 318 316 314 312 311 310 309 308 307 306 305 305 304 304 303 303 303 303 303 304 305 306 307 309 310 311 312 313 314 314 314 314 315 317 319 320 321 322 323 324 327 331 331 329 326 325
Height
1514 1515 1516 1517 1517 1518 1519 1520 1521 1522 1522 1523 1523 1524 1525 1526 1526 1527 1528 1528 1529 1530 1531 1531 1532 1533 1533 1533 1533 1533 1534 1534 1534 1533 1533 1533 1533 1533 1533 1534 1534 1534 1534 1534 1534 1534 1534 1534 1534 1534 1534 1534 1534 1534 1534 1534 1534 1534 1534 1534 1534 1533 1533 1533 1533 1533 1533 1532 1532
1513 1513 1515 1515 1516 1517 1518 1519 1520 1520 1521 1522 1523 1523 1524 1525 1525 1526 1526 1527 1528 1528 1529 1530 1530 1531 1532 1532 1532 1532 1532 1532 1532 1532 1532 1532 1532 1532 1532 1532 1532 1532 1532 1532 1533 1533 1533 1533 1533 1533 1533 1532 1532 1532 1532 1532 1532 1532 1532 1532 1532 1532 1532 1531 1531 1531 1531 1531 1531
1511 1513 1513 1514 1515 1516 1517 1518 1518 1519 1520 1521 1522 1522 1523 1523 1524 1524 1525 1526 1526 1527 1528 1528 1529 1529 1530 1530 1530 1530 1530 1530 1530 1530 1530 1530 1530 1530 1530 1530 1530 1530 1530 1530 1531 1531 1531 1531 1531 1531 1530 1530 1530 1530 1530 1530 1530 1530 1530 1530 1530 1530 1530 1530 1530 1530 1529 1529 1529
1510 1512 1513 1513 1514 1514 1515 1517 1518 1518 1519 1520 1521 1521 1522 1522 1523 1523 1524 1525 1525 1526 1526 1527 1527 1528 1528 1528 1528 1528 1529 1529 1529 1529 1529 1529 1529 1528 1528 1528 1528 1528 1528 1528 1528 1528 1528 1529 1529 1528 1528 1528 1528 1528 1528 1528 1528 1528 1528 1529 1529 1528 1528 1528 1528 1528 1528 1528 1527
1509 1510 1511 1512 1513 1514 1515 1516 1517 1518 1518 1519 1520 1520 1521 1521 1522 1523 1523 1523 1523 1524 1525 1525 1526 1526 1526 1526 1527 1527 1527 1527 1527 1527 1527 1527 1527 1527 1527 1527 1527 1527 1526 1526 1526 1526 1526 1527 1527 1527 1526 1526 1526 1526 1526 1526 1527 1527 1527 1527 1527 1527 1527 1527 1526 1526 1526 1526 1525
1508 1509 1511 1512 1512 1513 1514 1515 1516 1517 1518 1518 1518 1519 1520 1520 1521 1521 1522 1522 1523 1523 1523 1524 1524 1524 1524 1525 1525 1525 1525 1525 1525 1525 1525 1525 1525 1525 1525 1525 1525 1525 1525 1524 1524 1524 1524 1525 1524 1524 1524 1524 1524 1524 1524 1524 1525 1525 1525 1525 1525 1525 1525 1525 1525 1524 1524 1524 1524
1508 1509 1510 1511 1512 1512 1513 1514 1515 1516 1517 1517 1518 1518 1518 1519 1520 1520 1520 1521 1521 1522 1522 1522 1522 1523 1523 1523 1523 1523 1524 1524 1524 1524 1523 1523 1523 1523 1523 1523 1523 1523 1523 1522 1522 1522 1522 1522 1522 1522 1522 1522 1522 1522 1522 1522 1522 1523 1523 1523 1523 1524 1524 1523 1523 1523 1523 1522 1522
1507 1508 1509 1510 1511 1512 1512 1513 1514 1515 1516 1516 1516 1517 1518 1518 1518 1519 1519 1519 1520 1520 1520 1521 1521 1521 1522 1522 1522 1522 1522 1523 1523 1523 1522 1522 1522 1522 1522 1522 1521 1521 1520 1520 1520 1521 1520 1520 1520 1519 1519 1519 1519 1519 1520 1520 1520 1520 1520 1521 1522 1522 1523 1522 1522 1521 1521 1521 1520
1506 1507 1508 1509 1510 1511 1512 1512 1513 1514 1514 1515 1515 1516 1517 1517 1517 1517 1518 1518 1518 1519 1519 1519 1520 1520 1520 1520 1520 1521 1521 1521 1521 1521 1521 1521 1521 1520 1520 1519 1519 1519 1519 1519 1518 1518 1518 1518 1518 1517 1517 1517 1517 1517 1517 1517 1518 1518 1518 1519 1519 1520 1520 1520 1520 1520 1519 1519 1518
1505 1506 1508 1508 1509 1510 1511 1512 1512 1513 1513 1514 1514 1515 1515 1516 1516 1516 1517 1517 1517 1518 1518 1518 1518 1519 1519 1519 1519 1519 1519 1519 1519 1519 1519 1518 1518 1518 1518 1517 1517 1517 1517 1517 1517 1517 1516 1516 1516 1515 1515 1515 1515 1514 1514 1514 1515 1515 1516 1517 1518 1518 1518 1518 1518 1518 1518 1517 1517
1505 1506 1507 1508 1508 1509 1510 1511 1511 1512 1512 1513 1513 1514 1514 1515 1515 1515 1516 1516 1516 1516 1517 1517 1517 1518 1518 1518 1518 1518 1518 1518 1518 1517 1517 1516 1516 1516 1516 1515 1515 1515 1515 1516 1515 1515 1515 1514 1514 1513 1513 1513 1513 1513 1513 1513 1513 1513 1513 1514 1515 1516 1517 1517 1517 1517 1516 1516 1515
1504 1505 1506 1507 1508 1508 1509 1510 1510 1511 1511 1512 1512 1513 1513 1513 1514 1514 1514 1514 1514 1515 1515 1516 1516 1516 1516 1516 1517 1517 1517 1516 1516 1515 1514 1514 1514 1514 1514 1514 1514 1514 1514 1514 1514 1514 1513 1513 1512 1512 1512 1512 1512 1511 1511 1511 1511 1511 1512 1513 1513 1514 1514 1515 1515 1515 1514 1514 1513
1504 1505 1505 1506 1507 1508 1508 1509 1509 1510 1510 1510 1511 1511 1512 1512 1513 1513 1513 1513 1513 1513 1514 1514 1515 1515 1515 1515 1515 1515 1515 1514 1513 1513 1513 1513 1513 1513 1513 1513 1513 1513 1513 1513 1512 1512 1511 1511 1511 1511 1510 1510 1510 1510 1509 1509 1510 1510 1511 1511 1512 1513 1513 1513 1513 1513 1513 1512 1512
1503 1504 1505 1505 1506 1507 1507 1508 1508 1508 1509 1509 1510 1510 1510 1511 1511 1511 1512 1512 1512 1512 1513 1513 1513 1513 1514 1514 1514 1513 1513 1512 1512 1512 1512 1512 1512 1512 1512 1512 1512 1512 1511 1511 1510 1510 1510 1509 1509 1509 1509 1508 1508 1508 1508 1508 1508 1509 1509 1510 1510 1511 1511 1511 1512 1511 1511 1510 1510
1503 1503 1504 1505 1505 1506 1506 1507 1507 1508 1508 1508 1508 1509 1509 1509 1510 1510 1510 1510 1511 1511 1512 1512 1512 1512 1512 1512 1512 1511 1511 1511 1511 1511 1511 1511 1511 1511 1511 1511 1510 1510 1510 1509 1509 1508 1508 1508 1508 1507 1507 1507 1507 1506 1507 1507 1507 1508 1508 1508 1509 1509 1509 1510 1510 1509 1509 1508 1508
1502 1503 1503 1504 1504 1505 1505 1506 1506 1507 1507 1507 1508 1508 1508 1508 1509 1509 1509 1509 1510 1510 1510 1510 1510 1510 1510 1510 1510 1510 1510 1510 1510 1510 1510 1510 1510 1510 1510 1509 1509 1509 1508 1508 1508 1507 1507 1506 1506 1506 1506 1505 1505 1505 1506 1506 1506 1506 1507 1507 1507 1508 1508 1508 1508 1508 1507 1507 1506
1501 1502 1503 1503 1503 1504 1505 1505 1505 1506 1506 1506 1507 1507 1507 1507 1508 1508 1508 1508 1508 1508 1509 1509 1509 1509 1509 1509 1509 1509 1509 1509 1509 1509 1509 1509 1509 1509 1508 1508 1508 1508 1507 1507 1506 1506 1506 1505 1505 1505 1505 1505 1505 1505 1505 1505 1505 1505 1505 1506 1506 1506 1506 1506 1506 1506 1505 1505 1504
1501 1501 1502 1502 1503 1503 1504 1504 1504 1504 1505 1505 1505 1506 1506 1506 1506 1506 1507 1507 1507 1507 1507 1507 1508 1508 1508 1508 1508 1508 1508 1508 1508 1508 1508 1508 1508 1507 1507 1507 1507 1506 1506 1505 1505 1505 1505 1504 1504 1504 1504 1504 1504 1504 1504 1504 1504 1504 1504 1504 1504 1504 1504 1504 1504 1504 1503 1503 1502
1500 1500 1501 1501 1502 1502 1503 1503 1503 1503 1503 1504 1504 1504 1504 1504 1505 1505 1505 1505 1506 1506 1506 1506 1506 1506 1506 1506 1506 1506 1506 1506 1506 1506 1506 1506 1506 1506 1506 1505 1505 1505 1505 1504 1504 1504 1504 1504 1503 1503 1503 1503 1503 1503 1503 1503 1503 1503 1503 1503 1503 1503 1503 1503 1502 1502 1502 1501 1500
1499 1499 1500 1500 1501 1501 1501 1501 1502 1502 1502 1502 1502 1503 1503 1503 1503 1503 1503 1504 1504 1504 1504 1504 1505 1505 1505 1505 1505 1505 1505 1505 1505 1505 1505 1505 1505 1504 1504 1504 1504 1504 1504 1503 1503 1503 1503 1503 1503 1502 1502 1502 1502 1502 1502 1501 1501 1501 1501 1501 1501 1501 1501 1501 1500 1500 1499 1499 1498
1498 1498 1499 1499 1499 1499 1500 1500 1500 1500 1501 1501 1501 1501 1501 1502 1502 1502 1502 1502 1503 1503 1503 1503 1503 1503 1503 1503 1503 1503 1503 1503 1503 1503 1503 1503 1503 1503 1503 1503 1503 1503 1503 1503 1503 1502 1502 1502 1502 1501 1501 1501 1501 1500 1500 1500 1500 1500 1499 1499 1499 1499 1499 1498 1498 1498 1497 1497 1496
1497 1497 1498 1498 1498 1498 1498 1499 1499 1499 1499 1499 1500 1500 1500 1500 1500 1501 1501 1501 1501 1502 1502 1502 1502 1502 1502 1502 1502 1502 1502 1502 1503 1503 1503 1503 1503 1502 1502 1502 1502 1502 1502 1502 1501 1501 1501 1501 1500 1500 1500 1499 1499 1499 1499 1498 1498 1498 1498 1498 1497 1497 1497 1497 1496 1496 1495 1494 1494
1496 1496 1497 1497 1497 1497 1498 1498 1498 1498 1498 1498 1499 1499 1499 1499 1499 1499 1500 1500 1500 1500 1501 1501 1501 1501 1501 1501 1501 1501 1501 1501 1502 1502 1502 1502 1502 1502 1501 1501 1501 1501 1501 1500 1500 1500 1499 1499 1499 1498 1498 1498 1498 1498 1497 1497 1497 1496 1496 1496 1495 1495 1495 1494 1494 1493 1493 1492 1491
1495 1496 1496 1496 1496 1496 1497 1497 1497 1497 1498 1498 1498 1498 1498 1498 1498 1499 1499 1499 1499 1499 1499 1500 1500 1500 1500 1500 1500 1500 1500 1500 1501 1501 1501 1501 1501 1501 1501 1500 1500 1500 1500 1499 1499 1498 1498 1498 1498 1497 1497 1497 1496 1496 1496 1495 1495 1495 1494 1494 1493 1493 1493 1493 1492 1491 1490 1490 1489
1495 1495 1495 1495 1496 1496 1496 1496 1496 1497 1497 1497 1497 1497 1498 1498 1498 1498 1498 1498 1498 1498 1499 1499 1499 1499 1499 1499 1499 1499 1500 1500 1500 1500 1500 1500 1500 1500 1500 1499 1499 1499 1498 1498 1498 1497 1497 1497 1496 1496 1496 1495 1495 1495 1494 1494 1494 1493 1493 1493 1492 1491 1491 1490 1490 1489 1488 1487 1486
1494 1495 1495 1495 1495 1495 1495 1496 1496 1496 1496 1496 1497 1497 1497 1497 1497 1497 1498 1498 1498 1498 1498 1498 1498 1498 1498 1498 1498 1499 1499 1499 1499 1499 1499 1499 1499 1499 1498 1498 1498 1498 1497 1497 1496 1496 1496 1496 1495 1495 1494 1494 1494 1494 1493 1493 1493 1492 1492 1491 1490 1489 1488 1488 1487 1486 1485 1484 1483
1494 1494 1494 1494 1495 1495 1495 1495 1495 1495 1496 1496 1496 1496 1496 1497 1497 1497 1497 1497 1497 1497 1497 1498 1498 1498 1498 1498 1498 1498 1498 1498 1498 1498 1498 1498 1498 1498 1498 1497 1497 1496 1496 1496 1495 1495 1495 1495 1495 1494 1494 1493 1493 1493 1492 1492 1491 1491 1490 1489 1488 1487 1486 1485 1484 1483 1482 1481 1480
1494 1494 1494 1494 1494 1494 1494 1495 1495 1495 1495 1495 1495 1496 1496 1496 1496 1496 1496 1496 1497 1497 1497 1497 1497 1497 1497 1497 1497 1497 1497 1497 1497 1497 1497 1497 1497 1497 1496 1496 1496 1495 1495 1495 1495 1495 1495 1495 1494 1494 1493 1493 1492 1492 1491 1490 1489 1489 1488 1487 1486 1485 1483 1482 1481 1480 1479 1478 1477
1493 1493 1493 1493 1494 1494 1494 1494 1494 1494 1494 1495 1495 1495 1495 1495 1495 1496 1496 1496 1496 1496 1496 1496 1497 1497 1497 1497 1497 1497 1497 1497 1496 1496 1496 1496 1496 1496 1495 1495 1495 1495 1495 1495 1495 1495 1494 1494 1494 1493 1493 1492 1491 1490 1489 1488 1488 1487 1486 1485 1484 1483 1481 1480 1479 1477 1476 1475 1474
1493 1493 1493 1493 1493 1493 1493 1493 1494 1494 1494 1494 1494 1494 1495 1495 1495 1495 1495 1496 1496 1496 1496 1496 1496 1496 1496 1496 1496 1496 1496 1496 1496 1496 1496 1495 1495 1495 1495 1495 1495 1495 1495 1495 1495 1494 1494 1493 1493 1492 1492 1491 1489 1488 1488 1487 1486 1485 1483 1483 1482 1480 1479 1478 1477 1475 1474 1473 1472
1493 1493 1493 1493 1493 1493 1493 1493 1493 1493 1493 1494 1494 1494 1494 1495 1495 1495 1495 1495 1496 1496 1496 1496 1496 1496 1496 1496 1495 1495 1495 1495 1495 1495 1496 1496 1496 1496 1495 1495 1495 1495 1495 1494 1494 1493 1493 1492 1492 1491 1490 1489 1488 1487 1486 1485 1484 1483 1482 1480 1479 1478 1477 1476 1474 1473 1472 1471 1469
1492 1492 1492 1492 1492 1493 1493 1493 1493 1493 1493 1493 1494 1494 1494 1494 1495 1495 1495 1495 1495 1495 1495 1495 1495 1495 1495 1495 1495 1495 1495 1495 1496 1496 1496 1496 1496 1496 1495 1495 1495 1494 1494 1494 1493 1493 1492 1491 1490 1489 1488 1487 1486 1485 1484 1483 1482 1481 1479 1478 1477 1476 1475 1473 1472 1471 1470 1468 1467
1492 1492 1492 1492 1492 1492 1493 1493 1493 1493 1493 1493 1494 1494 1494 1495 1495 1495 1495 1495 1495 1495 1495 1495 1495 1495 1495 1496 1496 1496 1496 1496 1496 1496 1496 1496 1496 1495 1495 1494 1494 1493 1493 1493 1492 1491 1490 1489 1488 1487 1486 1485 1484 1483 1482 1481 1480 1478 1478 1476 1475 1474 1473 1471 1470 1469 1468 1467 1465
1492 1492 1492 1492 1492 1493 1493 1493 1493 1493 1493 1494 1494 1494 1495 1495 1495 1495 1495 1495 1495 1495 1496 1496 1496 1496 1496 1496 1496 1496 1496 1496 1496 1496 1496 1495 1495 1494 1494 1493 1493 1492 1492 1491 1490 1489 1488 1487 1486 1485 1484 1483 1482 1481 1479 1478 1478 1476 1475 1474 1473 1472 1471 1470 1468 1467 1466 1465 1463
1492 1492 1492 1493 1493 1493 1493 1493 1493 1494 1494 1494 1494 1495 1495 1495 1495 1495 1496 1496 1496 1496 1496 1496 1496 1496 1496 1496 1496 1496 1496 1496 1496 1495 1495 1494 1494 1493 1493 1492 1492 1491 1490 1489 1488 1488 1487 1485 1484 1483 1482 1481 1479 1478 1478 1476 1475 1474 1473 1472 1471 1470 1469 1468 1467 1465 1464 1463 1462
1493 1493 1493 1493 1493 1493 1493 1494 1494 1494 1494 1495 1495 1495 1495 1496 1496 1496 1496 1496 1496 1497 1497 1497 1497 1497 1496 1496 1496 1496 1496 1495 1495 1494 1494 1493 1493 1492 1492 1491 1490 1489 1488 1488 1487 1486 1485 1484 1483 1481 1480 1478 1478 1476 1475 1474 1473 1472 1471 1470 1469 1468 1467 1466 1464 1463 1462 1461 1460
1493 1493 1493 1493 1493 1494 1494 1494 1494 1495 1495 1495 1496 1496 1496 1496 1496 1497 1497 1497 1497 1497 1497 1497 1497 1496 1496 1496 1495 1495 1495 1494 1494 1493 1493 1492 1492 1491 1490 1489 1488 1488 1487 1486 1485 1484 1483 1482 1481 1479 1478 1477 1476 1474 1473 1472 1471 1470 1469 1468 1467 1466 1465 1464 1463 1462 1461 1459 1458
1493 1494 1494 1494 1494 1494 1495 1495 1495 1496 1496 1496 1496 1497 1497 1497 1497 1497 1497 1497 1497 1497 1497 1497 1496 1496 1496 1495 1495 1494 1494 1493 1493 1492 1492 1491 1490 1489 1489 1488 1487 1486 1485 1484 1483 1482 1481 1480 1479 1478 1476 1475 1474 1472 1471 1470 1469 1468 1467 1466 1465 1464 1463 1462 1461 1460 1459 1458 1457
1494 1494 1495 1495 1495 1495 1496 1496 1496 1496 1497 1497 1497 1497 1497 1497 1497 1497 1497 1497 1497 1497 1497 1496 1496 1495 1495 1494 1494 1493 1493 1492 1492 1491 1490 1489 1488 1488 1487 1486 1485 1484 1483 1482 1481 1480 1479 1478 1477 1476 1475 1473 1472 1470 1469 1468 1467 1466 1465 1464 1463 1462 1461 1461 1460 1459 1458 1457 1456
1494 1495 1495 1495 1496 1496 1496 1496 1497 1497 1497 1497 1497 1497 1497 1497 1497 1497 1497 1497 1497 1496 1496 1496 1495 1495 1494 1494 1493 1493 1492 1491 1490 1489 1489 1488 1487 1486 1485 1484 1483 1482 1481 1480 1480 1479 1478 1477 1476 1474 1473 1472 1470 1469 1467 1466 1465 1464 1463 1462 1461 1460 1460 1459 1458 1458 1457 1456 1455
1495 1495 1496 1496 1496 1497 1497 1497 1497 1497 1497 1497 1497 1497 1497 1497 1497 1497 1497 1496 1496 1496 1495 1495 1494 1494 1493 1493 1492 1491 1491 1490 1489 1488 1487 1487 1485 1484 1483 1483 1482 1481 1480 1479 1478 1477 1476 1475 1474 1473 1472 1470 1468 1467 1466 1465 1464 1463 1462 1461 1460 1459 1458 1457 1457 1456 1456 1455 1453